QPF
0.00 0.00 0.00 0.00 0.00 0.00 0.00 0.00 0.00 0.00 0.00 0.00 0.00 0.00 0.00 0.00 0.00 0.00 0.00 0.00 0.00 0.00 0.00 0.00 0.00 0.00 0.00 0.00 0.01 0.05 0.05 0.02 0.01 0.01 0.00 0.00 0.00 0.00 0.00 0.00 0.00 0.00 0.00 0.00
0.00 0.00 0.00 0.00 0.00 0.00 0.00 0.00 0.00 0.00 0.00 0.00 0.00 0.00 0.00 0.00 0.00 0.00 0.00 0.00 0.00 0.00 0.00 0.00 0.00 0.00 0.00 0.00 0.01 0.02 0.02 0.00 0.00 0.00 0.01 0.02 0.05 0.01 0.00 0.00 0.00 0.00 0.00 0.00
0.00 0.00 0.00 0.00 0.00 0.00 0.00 0.00 0.00 0.00 0.00 0.00 0.00 0.00 0.00 0.00 0.00 0.00 0.00 0.00 0.00 0.00 0.00 0.00 0.00 0.00 0.00 0.00 0.00 0.00 0.01 0.00 0.00 0.00 0.03 0.11 0.07 0.05 0.01 0.00 0.00 0.00 0.00 0.00
0.00 0.00 0.00 0.00 0.00 0.00 0.00 0.00 0.00 0.00 0.00 0.00 0.00 0.00 0.00 0.00 0.00 0.00 0.00 0.00 0.00 0.00 0.00 0.00 0.00 0.00 0.00 0.00 0.00 0.01 0.02 0.01 0.00 0.00 0.00 0.02 0.08 0.06 0.03 0.03 0.05 0.01 0.00 0.00
0.00 0.00 0.00 0.00 0.00 0.00 0.00 0.00 0.00 0.00 0.00 0.00 0.00 0.00 0.00 0.00 0.00 0.00 0.00 0.00 0.00 0.00 0.00 0.00 0.00 0.00 0.00 0.00 0.00 0.00 0.01 0.00 0.00 0.00 0.01 0.02 0.06 0.14 0.18 0.11 0.06 0.02 0.02 0.01
0.00 0.00 0.00 0.00 0.00 0.00 0.00 0.00 0.00 0.00 0.00 0.00 0.00 0.00 0.00 0.00 0.00 0.00 0.00 0.00 0.00 0.00 0.00 0.00 0.00 0.00 0.00 0.00 0.00 0.00 0.00 0.00 0.00 0.00 0.01 0.03 0.08 0.16 0.18 0.14 0.12 0.11 0.07 0.03
0.00 0.00 0.00 0.00 0.00 0.00 0.00 0.00 0.00 0.00 0.00 0.00 0.00 0.00 0.00 0.00 0.00 0.00 0.00 0.00 0.00 0.00 0.00 0.00 0.00 0.00 0.00 0.00 0.00 0.00 0.01 0.00 0.00 0.01 0.02 0.05 0.09 0.18 0.16 0.17 0.18 0.13 0.16 0.14
0.00 0.00 0.00 0.00 0.00 0.00 0.00 0.00 0.00 0.01 0.00 0.00 0.00 0.00 0.00 0.00 0.00 0.00 0.00 0.00 0.00 0.00 0.00 0.00 0.00 0.00 0.00 0.00 0.00 0.00 0.01 0.02 0.01 0.01 0.02 0.03 0.05 0.08 0.11 0.14 0.14 0.14 0.12 0.07
0.00 0.00 0.00 0.00 0.00 0.00 0.00 0.00 0.00 0.00 0.00 0.00 0.00 0.00 0.00 0.00 0.00 0.00 0.00 0.00 0.00 0.00 0.00 0.00 0.00 0.00 0.00 0.00 0.00 0.00 0.02 0.04 0.02 0.02 0.04 0.03 0.04 0.03 0.08 0.09 0.11 0.08 0.03 0.02
0.00 0.01 0.00 0.00 0.00 0.00 0.00 0.00 0.01 0.00 0.00 0.00 0.00 0.00 0.00 0.00 0.00 0.00 0.00 0.00 0.00 0.00 0.00 0.00 0.00 0.00 0.00 0.00 0.00 0.00 0.02 0.01 0.00 0.02 0.02 0.02 0.02 0.01 0.07 0.12 0.07 0.04 0.01 0.00
0.00 0.00 0.00 0.00 0.00 0.00 0.00 0.00 0.00 0.00 0.00 0.00 0.00 0.00 0.00 0.00 0.00 0.00 0.00 0.00 0.00 0.00 0.00 0.00 0.00 0.00 0.00 0.00 0.00 0.01 0.03 0.01 0.03 0.02 0.02 0.04 0.05 0.03 0.03 0.08 0.06 0.05 0.01 0.00
0.00 0.00 0.00 0.00 0.00 0.00 0.00 0.00 0.00 0.00 0.00 0.01 0.01 0.00 0.00 0.00 0.00 0.00 0.00 0.00 0.00 0.00 0.00 0.00 0.00 0.00 0.00 0.00 0.01 0.02 0.02 0.01 0.00 0.01 0.03 0.03 0.04 0.03 0.03 0.08 0.09 0.05 0.02 0.02
0.00 0.00 0.00 0.00 0.00 0.00 0.00 0.00 0.00 0.00 0.00 0.00 0.00 0.00 0.00 0.00 0.00 0.00 0.00 0.00 0.00 0.00 0.00 0.00 0.00 0.00 0.00 0.01 0.04 0.07 0.02 0.02 0.01 0.01 0.03 0.03 0.02 0.04 0.12 0.14 0.13 0.06 0.07 0.02
0.01 0.00 0.00 0.00 0.00 0.00 0.00 0.00 0.00 0.00 0.00 0.00 0.00 0.00 0.00 0.00 0.00 0.00 0.00 0.00 0.00 0.00 0.00 0.00 0.00 0.00 0.00 0.02 0.09 0.14 0.07 0.03 0.03 0.03 0.04 0.04 0.05 0.16 0.17 0.10 0.11 0.07 0.03 0.00
0.00 0.00 0.00 0.00 0.00 0.00 0.00 0.00 0.00 0.00 0.00 0.00 0.00 0.00 0.00 0.00 0.00 0.00 0.00 0.01 0.02 0.01 0.02 0.01 0.00 0.00 0.00 0.01 0.09 0.13 0.11 0.05 0.04 0.05 0.05 0.07 0.11 0.16 0.11 0.07 0.07 0.03 0.00 0.00
0.00 0.00 0.00 0.00 0.00 0.00 0.00 0.00 0.00 0.00 0.01 0.01 0.01 0.00 0.00 0.00 0.01 0.01 0.02 0.02 0.02 0.00 0.00 0.01 0.01 0.01 0.00 0.02 0.09 0.16 0.17 0.09 0.05 0.05 0.05 0.08 0.12 0.11 0.07 0.07 0.02 0.00 0.00 0.00
0.00 0.00 0.00 0.00 0.00 0.00 0.00 0.00 0.00 0.00 0.00 0.01 0.01 0.01 0.00 0.00 0.01 0.02 0.02 0.02 0.02 0.03 0.06 0.10 0.08 0.05 0.05 0.04 0.05 0.10 0.14 0.14 0.11 0.08 0.08 0.09 0.09 0.07 0.05 0.03 0.00 0.00 0.00 0.00
0.00 0.00 0.00 0.00 0.00 0.00 0.00 0.00 0.00 0.00 0.00 0.00 0.00 0.00 0.00 0.00 0.00 0.00 0.00 0.00 0.01 0.02 0.07 0.17 0.12 0.06 0.06 0.02 0.02 0.05 0.11 0.11 0.08 0.06 0.09 0.10 0.09 0.08 0.03 0.00 0.00 0.00 0.00 0.00
0.00 0.00 0.00 0.00 0.00 0.00 0.00 0.00 0.00 0.00 0.00 0.00 0.00 0.00 0.00 0.00 0.00 0.00 0.00 0.01 0.01 0.02 0.04 0.18 0.06 0.01 0.02 0.01 0.03 0.04 0.05 0.08 0.13 0.16 0.11 0.09 0.07 0.01 0.00 0.00 0.00 0.00 0.00 0.00
0.00 0.00 0.00 0.00 0.00 0.00 0.00 0.00 0.00 0.00 0.00 0.00 0.00 0.00 0.00 0.00 0.00 0.00 0.00 0.02 0.03 0.04 0.07 0.12 0.07 0.04 0.01 0.05 0.08 0.04 0.02 0.04 0.05 0.07 0.04 0.03 0.01 0.01 0.01 0.00 0.00 0.00 0.00 0.00
0.00 0.00 0.00 0.00 0.00 0.00 0.00 0.00 0.00 0.00 0.00 0.00 0.00 0.00 0.00 0.00 0.00 0.00 0.00 0.01 0.03 0.03 0.06 0.08 0.07 0.08 0.05 0.07 0.06 0.02 0.01 0.02 0.01 0.01 0.00 0.00 0.02 0.02 0.01 0.00 0.00 0.00 0.00 0.00
0.00 0.00 0.00 0.00 0.00 0.00 0.00 0.00 0.00 0.00 0.00 0.00 0.00 0.00 0.00 0.00 0.00 0.00 0.02 0.02 0.04 0.03 0.07 0.07 0.08 0.10 0.05 0.04 0.01 0.00 0.00 0.00 0.00 0.00 0.00 0.00 0.01 0.00 0.00 0.00 0.00 0.00 0.00 0.00
0.00 0.00 0.00 0.00 0.00 0.00 0.00 0.00 0.00 0.00 0.00 0.00 0.00 0.00 0.00 0.00 0.00 0.04 0.07 0.05 0.06 0.04 0.08 0.08 0.06 0.05 0.02 0.00 0.00 0.00 0.00 0.00 0.00 0.00 0.00 0.00 0.00 0.00 0.00 0.00 0.00 0.00 0.00 0.00
0.00 0.00 0.00 0.00 0.00 0.00 0.00 0.00 0.00 0.00 0.00 0.00 0.00 0.00 0.00 0.00 0.00 0.05 0.04 0.02 0.02 0.05 0.05 0.03 0.02 0.00 0.00 0.00 0.00 0.00 0.00 0.00 0.00 0.00 0.00 0.00 0.00 0.00 0.00 0.00 0.00 0.00 0.00 0.00
0.00 0.00 0.00 0.00 0.00 0.00 0.00 0.00 0.00 0.00 0.00 0.00 0.00 0.00 0.00 0.00 0.01 0.02 0.01 0.00 0.01 0.01 0.02 0.00 0.00 0.00 0.00 0.00 0.00 0.00 0.01 0.01 0.00 0.00 0.00 0.00 0.00 0.00 0.00 0.00 0.00 0.00 0.00 0.00
0.00 0.00 0.00 0.00 0.00 0.00 0.00 0.00 0.00 0.00 0.00 0.00 0.00 0.00 0.00 0.00 0.01 0.01 0.00 0.00 0.00 0.00 0.00 0.00 0.00 0.00 0.00 0.00 0.01 0.01 0.02 0.02 0.00 0.00 0.00 0.00 0.00 0.00 0.00 0.00 0.00 0.00 0.00 0.00
MSLP
1011.21 1012.10 1012.41 1012.13 1012.06 1011.96 1011.95 1011.91 1011.53 1010.48 1010.02 1009.70 1008.93 1007.91 1006.67 1006.16 1005.57 1005.25 1004.82 1004.78 1004.14 1003.55 1002.88 1003.51 1003.74 1003.08 1003.48 1003.90 1004.64 1005.36 1005.56 1005.17 1005.38 1005.76 1006.14 1006.42 1006.60 1007.22 1007.81 1008.22 1008.63 1009.04 1009.69 1009.97
1011.95 1012.02 1011.30 1011.22 1011.24 1011.41 1011.32 1011.22 1010.85 1010.00 1009.59 1009.30 1008.43 1007.17 1006.33 1005.72 1005.33 1004.81 1004.28 1004.04 1003.81 1003.31 1002.80 1003.09 1003.23 1003.09 1003.15 1003.33 1003.75 1004.52 1004.94 1004.41 1004.46 1005.24 1005.47 1005.44 1005.65 1006.39 1007.55 1007.87 1008.91 1009.19 1009.67 1010.08
1011.61 1011.05 1010.72 1010.97 1010.88 1010.88 1010.67 1010.62 1010.36 1009.91 1009.18 1008.75 1008.27 1006.61 1005.98 1005.36 1004.83 1004.29 1003.46 1003.02 1003.15 1002.95 1002.59 1002.74 1002.97 1002.86 1003.07 1003.44 1003.38 1003.65 1003.93 1004.08 1004.55 1005.01 1005.08 1005.50 1006.38 1006.15 1007.32 1008.47 1009.29 1009.55 1009.84 1010.50
1010.86 1010.35 1010.44 1010.53 1010.46 1010.26 1009.89 1009.73 1009.61 1009.56 1009.65 1008.91 1008.54 1005.50 1005.82 1005.24 1004.38 1003.96 1002.85 1002.29 1002.11 1002.19 1002.17 1002.30 1002.46 1002.71 1002.73 1002.85 1002.57 1003.08 1003.77 1004.23 1004.35 1004.53 1004.47 1004.90 1005.38 1005.89 1007.18 1007.98 1009.27 1009.73 1010.03 1011.20
1010.64 1010.42 1010.28 1010.07 1009.73 1009.48 1009.19 1009.10 1009.26 1009.45 1009.39 1008.94 1008.91 1008.32 1004.97 1004.59 1003.83 1003.14 1002.71 1001.91 1001.33 1001.19 1001.59 1001.49 1001.86 1001.74 1001.88 1001.95 1002.17 1002.18 1002.67 1003.26 1003.30 1003.47 1004.09 1004.88 1005.66 1006.53 1007.78 1007.75 1008.79 1010.41 1010.68 1011.21
1010.87 1010.08 1009.80 1009.39 1009.32 1009.40 1009.25 1009.27 1009.24 1009.48 1009.78 1008.77 1008.58 1008.11 1003.47 1004.00 1002.90 1002.13 1001.99 1001.53 1000.80 1000.51 1000.92 1000.85 1001.06 1001.10 1001.18 1001.19 1001.52 1001.72 1001.88 1002.11 1002.74 1003.39 1004.32 1004.96 1006.12 1007.13 1007.70 1009.38 1010.72 1011.54 1012.16 1011.53
1011.52 1010.35 1009.71 1009.47 1009.67 1009.59 1009.81 1010.41 1010.61 1010.53 1010.41 1008.44 1007.32 1006.85 1003.84 1002.94 1002.17 1001.85 1001.66 1001.22 1000.59 1000.19 1000.53 1000.50 1000.68 1000.96 1000.80 1000.71 1000.92 1001.12 1001.50 1001.86 1002.68 1003.39 1004.23 1004.83 1005.91 1007.48 1008.87 1009.72 1010.58 1011.69 1012.24 1011.86
1012.66 1011.35 1010.25 1009.93 1010.36 1010.48 1010.31 1010.86 1011.67 1010.93 1010.21 1009.16 1007.81 1005.88 1003.45 1001.91 1001.05 1001.13 1001.27 1001.12 1000.68 1000.40 1000.39 1000.25 999.84 1000.05 1000.06 1000.10 1000.44 1000.49 1000.89 1001.81 1002.37 1003.42 1004.72 1005.23 1006.11 1007.25 1008.07 1009.53 1010.50 1011.51 1012.05 1012.27
1013.15 1011.80 1010.40 1010.11 1009.59 1010.25 1010.36 1010.69 1010.59 1011.06 1010.28 1009.58 1007.18 1005.08 1003.21 1001.92 1001.34 1001.26 1001.14 1001.23 1000.98 1000.43 1000.24 999.98 999.65 999.55 999.44 999.64 999.88 1000.01 1000.48 1001.43 1002.14 1003.10 1004.17 1005.28 1006.10 1006.44 1006.72 1007.10 1010.06 1011.49 1011.90 1011.68
1013.33 1012.17 1010.69 1010.01 1009.92 1009.12 1009.48 1009.96 1010.85 1010.95 1009.96 1008.78 1006.65 1005.24 1003.64 1002.22 1001.63 1001.36 1001.28 1001.15 1000.79 1000.22 999.70 999.46 999.16 998.92 998.60 998.84 998.97 999.51 1000.04 1000.63 1001.69 1002.82 1003.72 1004.76 1005.87 1006.23 1006.94 1008.34 1010.33 1011.31 1012.22 1011.52
1013.49 1013.43 1011.54 1010.85 1009.88 1009.09 1009.44 1009.67 1010.35 1010.48 1009.92 1008.97 1007.01 1004.46 1002.87 1002.13 1001.67 1001.54 1001.33 1000.89 1000.52 1000.26 999.45 999.02 999.06 998.19 997.90 998.25 998.47 998.87 999.59 1000.41 1001.38 1002.50 1003.99 1004.69 1005.83 1006.80 1007.95 1009.16 1010.53 1011.76 1011.67 1013.36
1013.25 1013.14 1012.03 1010.53 1009.01 1009.09 1009.32 1009.42 1010.27 1010.15 1009.49 1008.62 1007.42 1003.75 1002.63 1002.31 1001.76 1001.35 1001.06 1000.44 1000.04 999.94 999.24 998.72 998.84 998.48 997.34 997.37 997.57 998.02 999.00 999.98 1000.87 1001.96 1003.32 1004.71 1005.78 1007.09 1008.52 1009.52 1010.64 1010.76 1012.02 1014.11
1013.15 1012.88 1012.12 1010.30 1009.37 1008.75 1008.95 1009.11 1009.67 1009.46 1009.14 1008.17 1007.38 1004.03 1002.44 1002.40 1001.57 1000.91 1000.93 1000.56 1000.09 999.45 998.98 998.52 998.37 998.34 996.94 996.95 996.56 997.58 998.32 999.70 1000.91 1001.61 1003.33 1004.93 1006.10 1007.24 1008.53 1009.79 1010.52 1011.95 1013.20 1014.69
1012.40 1012.02 1011.82 1010.95 1009.85 1009.61 1009.40 1009.10 1009.21 1009.20 1008.46 1007.15 1005.65 1003.88 1003.20 1002.38 1001.60 1001.07 1000.67 1000.28 999.79 999.53 999.23 998.60 998.21 998.30 996.55 996.59 996.38 997.11 998.26 999.50 1000.76 1001.59 1003.10 1004.88 1006.24 1007.63 1008.90 1010.16 1011.28 1012.46 1013.81 1015.10
1011.80 1011.57 1011.44 1010.67 1009.98 1009.34 1008.66 1008.56 1008.26 1008.05 1007.32 1006.48 1004.97 1004.32 1002.74 1002.58 1002.39 1001.66 1000.57 999.88 999.42 999.40 998.66 997.74 997.77 997.81 996.29 995.82 996.25 997.32 998.65 999.75 1000.94 1002.32 1003.79 1005.40 1007.11 1008.39 1009.61 1010.95 1012.25 1012.90 1014.74 1015.72
1011.88 1011.65 1011.29 1010.05 1008.93 1008.46 1008.07 1007.93 1007.83 1007.25 1006.48 1005.90 1005.16 1003.96 1003.46 1003.22 1002.97 1002.04 1001.16 1000.30 999.41 998.83 997.95 996.91 996.54 995.95 995.06 995.25 996.34 997.72 999.24 1000.31 1001.59 1002.85 1004.41 1006.24 1007.94 1009.46 1010.69 1012.38 1013.13 1014.72 1015.68 1016.97
1012.48 1012.47 1011.73 1009.46 1008.55 1008.22 1007.73 1007.46 1007.69 1007.33 1006.74 1006.45 1005.46 1004.90 1004.26 1003.47 1002.90 1002.04 1000.95 1000.05 998.98 997.81 997.52 996.65 995.35 994.26 994.06 995.23 996.73 998.60 999.95 1001.20 1002.52 1003.73 1005.70 1007.52 1009.08 1010.82 1012.04 1012.29 1013.65 1016.07 1017.01 1017.83
1012.41 1012.55 1011.93 1010.19 1009.27 1008.48 1007.64 1007.69 1007.74 1007.65 1006.65 1006.38 1006.22 1005.40 1004.63 1003.62 1002.56 1001.12 999.74 999.22 998.47 998.10 996.63 995.58 993.90 993.74 995.05 996.02 996.98 998.40 1000.30 1002.24 1003.58 1005.22 1006.98 1008.56 1009.94 1011.96 1013.90 1015.14 1015.11 1017.05 1017.85 1018.01
1012.13 1012.43 1011.93 1010.93 1010.01 1008.47 1007.70 1008.08 1008.40 1008.03 1006.63 1006.98 1006.37 1005.29 1004.20 1002.98 1001.77 999.18 998.16 997.97 997.82 997.30 996.13 995.28 994.29 994.11 996.19 997.09 997.87 999.78 1001.90 1003.54 1004.72 1006.13 1007.81 1009.72 1011.07 1012.71 1014.98 1015.21 1017.32 1018.98 1018.65 1018.42
1011.98 1012.10 1012.39 1011.58 1010.73 1009.19 1008.56 1008.33 1007.92 1007.79 1007.02 1006.62 1006.53 1005.30 1004.02 1002.50 1001.10 998.55 997.83 998.03 997.41 996.62 996.44 995.64 995.63 995.81 996.87 998.46 999.40 1000.92 1003.20 1004.81 1005.96 1007.46 1008.51 1010.14 1011.38 1011.98 1014.69 1016.92 1018.39 1019.64 1018.60 1018.77
1012.20 1012.11 1012.35 1011.86 1011.17 1009.14 1008.96 1008.33 1007.67 1008.17 1008.42 1007.01 1006.38 1004.90 1003.23 1001.96 1000.55 998.67 997.77 996.70 996.44 996.48 996.06 996.59 996.91 996.76 997.81 998.80 1000.19 1002.50 1004.04 1005.67 1007.25 1008.95 1010.24 1010.57 1011.47 1013.62 1015.20 1017.55 1019.25 1018.15 1018.87 1019.80
1012.82 1012.82 1012.68 1012.22 1011.54 1010.07 1009.42 1008.85 1009.87 1009.48 1008.26 1007.45 1005.97 1004.29 1002.49 1001.33 999.50 998.34 997.08 995.98 995.03 996.30 995.98 996.99 997.66 998.44 998.87 999.70 1000.71 1003.49 1005.12 1006.89 1007.89 1009.75 1011.61 1010.31 1012.82 1014.27 1016.76 1017.68 1019.04 1018.49 1019.58 1021.39
1012.77 1012.89 1012.80 1012.56 1010.77 1009.67 1009.95 1010.16 1009.71 1009.25 1008.19 1006.74 1005.48 1003.71 1002.25 1000.82 998.99 997.67 995.91 995.05 995.18 996.13 996.84 997.54 998.24 999.28 1000.59 1001.69 1001.38 1003.70 1006.47 1007.87 1008.92 1011.25 1011.90 1013.09 1014.86 1016.25 1017.23 1018.44 1018.92 1019.57 1021.01 1022.46
1012.52 1012.64 1012.62 1012.28 1010.51 1010.23 1009.73 1009.83 1009.60 1008.59 1007.78 1006.23 1004.76 1003.23 1001.58 1000.26 999.01 997.78 997.12 995.96 997.15 997.51 997.76 998.88 999.43 1000.19 1002.29 1003.32 1004.57 1005.78 1007.85 1009.13 1010.36 1011.72 1013.23 1014.87 1015.92 1016.94 1017.93 1018.89 1019.49 1020.66 1022.83 1023.67
1012.73 1012.87 1012.44 1011.60 1010.42 1010.55 1009.55 1009.79 1009.40 1008.21 1007.24 1005.88 1004.20 1002.75 1001.40 1000.06 999.19 998.60 998.69 998.05 998.42 998.82 999.45 1000.26 1000.87 1001.96 1003.81 1005.16 1006.58 1007.84 1009.33 1010.31 1011.83 1013.24 1014.80 1016.27 1017.64 1017.90 1018.71 1020.08 1021.95 1023.29 1024.00 1024.11
1012.37 1012.39 1012.38 1011.32 1011.04 1011.34 1010.22 1009.92 1009.13 1008.24 1007.10 1005.70 1004.31 1002.74 1001.49 1000.59 999.74 999.34 1000.01 999.96 1000.33 1001.20 1001.75 1002.50 1003.15 1004.10 1005.73 1007.09 1008.52 1009.74 1010.89 1011.48 1012.90 1014.74 1016.65 1017.74 1018.26 1019.03 1020.41 1022.18 1023.98 1024.78 1024.94 1024.85
Thickness
5582 5568 5559 5567 5568 5577 5575 5570 5564 5579 5583 5576 5577 5585 5607 5612 5615 5622 5640 5649 5663 5680 5703 5699 5701 5713 5712 5721 5726 5734 5741 5759 5767 5771 5771 5774 5778 5777 5774 5772 5769 5771 5773 5774
5567 5558 5577 5581 5580 5572 5571 5565 5567 5576 5581 5573 5576 5586 5601 5609 5612 5624 5634 5642 5651 5672 5687 5690 5695 5702 5708 5713 5725 5731 5744 5762 5771 5771 5773 5777 5778 5777 5770 5769 5762 5764 5765 5765
5560 5571 5580 5575 5574 5569 5569 5563 5564 5566 5578 5578 5573 5581 5588 5603 5605 5614 5629 5640 5644 5657 5677 5682 5685 5693 5701 5704 5716 5729 5745 5758 5763 5766 5769 5769 5766 5772 5765 5758 5752 5756 5756 5753
5566 5576 5575 5568 5566 5566 5561 5575 5571 5569 5561 5557 5573 5568 5585 5592 5600 5608 5627 5636 5643 5647 5660 5672 5678 5681 5692 5701 5716 5724 5730 5741 5752 5760 5766 5767 5766 5765 5760 5756 5747 5744 5747 5736
5565 5568 5563 5562 5568 5573 5567 5574 5567 5564 5559 5556 5555 5544 5577 5595 5597 5608 5613 5625 5636 5647 5646 5660 5666 5679 5685 5697 5707 5719 5728 5737 5749 5758 5759 5756 5754 5751 5748 5749 5743 5725 5732 5727
5560 5571 5569 5568 5571 5567 5568 5560 5559 5554 5544 5548 5560 5552 5591 5585 5596 5606 5610 5616 5634 5642 5640 5649 5658 5672 5678 5690 5699 5709 5723 5736 5744 5751 5749 5748 5742 5737 5736 5723 5708 5701 5707 5719
5550 5559 5567 5566 5551 5556 5551 5536 5530 5528 5529 5545 5568 5557 5582 5597 5603 5602 5605 5610 5623 5634 5632 5637 5649 5653 5667 5677 5691 5703 5714 5727 5733 5743 5740 5740 5738 5728 5718 5709 5696 5695 5700 5709
5520 5531 5555 5557 5543 5535 5539 5533 5518 5526 5532 5525 5546 5543 5570 5601 5612 5608 5607 5610 5617 5623 5626 5631 5644 5651 5662 5672 5682 5696 5709 5716 5725 5733 5728 5729 5727 5721 5722 5712 5701 5700 5696 5703
5523 5534 5559 5549 5549 5537 5530 5524 5531 5518 5518 5522 5539 5558 5577 5591 5595 5601 5601 5606 5609 5617 5622 5625 5632 5645 5656 5666 5677 5689 5702 5709 5718 5727 5724 5720 5720 5725 5728 5733 5711 5699 5695 5704
5523 5520 5547 5547 5540 5544 5535 5533 5517 5518 5525 5526 5535 5541 5555 5579 5586 5587 5588 5592 5599 5609 5620 5625 5626 5638 5653 5661 5678 5687 5695 5708 5718 5723 5721 5721 5717 5721 5722 5718 5703 5688 5691 5701
5514 5507 5532 5531 5531 5533 5530 5526 5516 5513 5515 5519 5526 5540 5556 5567 5575 5577 5581 5588 5595 5598 5611 5620 5622 5637 5650 5658 5669 5685 5689 5700 5713 5716 5711 5716 5712 5709 5710 5704 5696 5688 5695 5682
5509 5506 5511 5530 5541 5538 5530 5525 5510 5510 5503 5518 5519 5539 5561 5561 5567 5572 5575 5587 5592 5593 5604 5613 5615 5624 5642 5654 5670 5684 5690 5693 5710 5716 5714 5710 5706 5701 5696 5694 5689 5694 5687 5673
5507 5504 5508 5524 5528 5535 5529 5525 5509 5506 5503 5513 5512 5536 5553 5551 5562 5571 5569 5571 5579 5587 5594 5602 5607 5613 5636 5650 5671 5679 5690 5692 5700 5710 5706 5701 5697 5695 5692 5688 5685 5678 5673 5662
5509 5508 5511 5518 5527 5520 5509 5516 5516 5498 5504 5515 5522 5534 5540 5549 5552 5558 5561 5566 5570 5571 5576 5585 5594 5598 5628 5640 5662 5673 5684 5692 5696 5702 5702 5695 5690 5688 5684 5680 5675 5668 5659 5651
5514 5512 5505 5509 5510 5513 5515 5515 5517 5510 5514 5515 5527 5521 5541 5537 5536 5544 5555 5560 5562 5558 5567 5579 5585 5592 5620 5637 5652 5667 5675 5683 5687 5688 5689 5685 5680 5677 5674 5671 5660 5657 5646 5643
5502 5507 5503 5516 5522 5520 5517 5520 5513 5520 5526 5521 5521 5525 5526 5520 5521 5528 5539 5548 5553 5552 5561 5574 5583 5601 5623 5638 5649 5659 5665 5673 5678 5678 5679 5675 5671 5665 5662 5654 5649 5632 5633 5627
5487 5486 5487 5511 5521 5510 5518 5514 5505 5505 5511 5503 5520 5507 5508 5512 5516 5523 5531 5537 5544 5555 5556 5566 5588 5613 5630 5636 5644 5647 5657 5663 5665 5669 5667 5662 5657 5649 5646 5650 5637 5617 5616 5615
5486 5480 5486 5500 5495 5462 5507 5506 5502 5498 5501 5497 5486 5495 5497 5504 5514 5527 5537 5536 5540 5547 5563 5578 5603 5618 5624 5633 5644 5653 5654 5652 5654 5656 5653 5649 5646 5635 5622 5612 5619 5607 5607 5611
5490 5481 5484 5492 5494 5502 5515 5497 5488 5487 5499 5485 5483 5492 5496 5507 5520 5537 5550 5549 5550 5557 5568 5586 5608 5627 5623 5633 5645 5644 5642 5643 5645 5645 5642 5634 5630 5623 5601 5612 5592 5583 5599 5608
5498 5487 5480 5477 5493 5508 5491 5493 5493 5487 5500 5485 5479 5486 5494 5510 5527 5546 5552 5545 5556 5571 5577 5595 5609 5623 5628 5629 5637 5636 5631 5631 5633 5629 5632 5628 5622 5620 5605 5586 5581 5579 5599 5601
5488 5482 5462 5467 5481 5496 5485 5489 5494 5491 5489 5479 5478 5490 5508 5523 5535 5546 5551 5561 5570 5578 5589 5596 5608 5624 5630 5635 5635 5626 5627 5625 5620 5615 5610 5615 5611 5605 5597 5580 5577 5597 5594 5592
5480 5473 5449 5464 5463 5488 5475 5487 5471 5468 5473 5472 5483 5500 5520 5530 5545 5554 5564 5578 5589 5581 5591 5603 5610 5615 5627 5632 5633 5623 5618 5612 5614 5603 5582 5603 5599 5596 5579 5579 5581 5594 5588 5578
5484 5469 5465 5462 5469 5477 5468 5465 5469 5469 5472 5482 5490 5510 5525 5537 5554 5567 5588 5597 5596 5592 5598 5609 5616 5617 5618 5620 5631 5619 5604 5599 5600 5587 5590 5584 5582 5579 5582 5581 5581 5582 5576 5569
5479 5464 5464 5460 5478 5470 5472 5470 5470 5474 5477 5489 5502 5516 5534 5547 5558 5576 5584 5601 5593 5595 5608 5609 5616 5621 5611 5610 5607 5602 5594 5590 5588 5584 5578 5576 5579 5581 5576 5575 5578 5575 5560 5555
5470 5457 5462 5467 5475 5465 5477 5470 5469 5479 5485 5496 5512 5526 5539 5555 5567 5574 5577 5588 5597 5601 5607 5609 5613 5612 5603 5596 5589 5587 5581 5582 5579 5578 5575 5570 5565 5570 5571 5568 5558 5551 5550 5553
5460 5461 5462 5466 5466 5459 5468 5468 5473 5480 5489 5500 5516 5531 5545 5554 5568 5572 5570 5572 5575 5584 5591 5593 5596 5594 5586 5581 5578 5577 5574 5580 5578 5570 5562 5562 5566 5568 5562 5552 5542 5539 5540 5545